User: anonymous   Login
Location: Unspecified
(0.0000°N, 0.0000°E)
Time: 08:34:49
(UTC+00:00)
Language:

SERT 2 - Orbit

View from above orbital plane
View from above orbital plane
View from above satellite
View from above satellite

Ground track
Ground track

The orbit data is extracted from the following two-line orbital elements,

1 04327U 70009A   18262.78503792 -.00000038  00000-0  44139-5 0  9990
2 04327  99.2827 337.2157 0004145 315.9576 150.4569 13.58481295409899
Epoch (UTC): 19 September 2018 18:50:27
Eccentricity: 0.0004145
inclination: 99.2827°
perigee height: 1038 km
apogee height: 1044 km
right ascension of ascending node: 337.2157°
argument of perigee: 315.9576°
revolutions per day: 13.58481295
mean anomaly at epoch: 150.4569°
orbit number at epoch: 40989

The dashed part of the orbit path shows where the satellite is in the earth's shadow,  

DLR